• In Romania
  • List of Countries
  • For 7 days
  • Water Temperature
  • Satellite Maps
  • Weather Map
  • Weather Widgets
  • user-avatar
    Login

    Hourly Weather Canillo

    Today, 22 September, Friday

    Time Temperature Precipitation Wind Pressure Humidity
    00:00 +7°C° 0 mm 1 mps 621 mmHg 76%
    01:00 +7°C° 0 mm 1 mps 621 mmHg 76%
    02:00 +7°C° 0 mm 1 mps 621 mmHg 76%
    03:00 +7°C° 0 mm 1 mps 621 mmHg 76%
    04:00 +7°C° 0.1 mm 1 mps 621 mmHg 77%
    05:00 +7°C° 0.1 mm 1 mps 621 mmHg 78%
    06:00 +7°C° 0 mm 1 mps 621 mmHg 74%
    07:00 +9°C° 0.1 mm 1 mps 622 mmHg 70%
    08:00 +11°C° 0.1 mm 1 mps 623 mmHg 66%
    09:00 +13°C° 0.1 mm 1 mps 624 mmHg 62%
    10:00 +14°C° 0.3 mm 1 mps 624 mmHg 60%
    11:00 +14°C° 0.3 mm 1 mps 624 mmHg 59%
    12:00 +15°C° 0.3 mm 1 mps 625 mmHg 58%
    13:00 +14°C° 1 mm 1 mps 624 mmHg 62%
    14:00 +14°C° 1 mm 1 mps 624 mmHg 65%
    15:00 +13°C° 1 mm 1 mps 624 mmHg 68%
    16:00 +12°C° 1.1 mm 1 mps 623 mmHg 74%
    17:00 +11°C° 1.1 mm 1 mps 622 mmHg 80%
    18:00 +9°C° 1.1 mm 1 mps 622 mmHg 86%
    19:00 +9°C° 0.5 mm 1 mps 622 mmHg 87%
    20:00 +9°C° 0.5 mm 1 mps 622 mmHg 88%
    21:00 +7°C° 0.5 mm 0 mps 622 mmHg 89%
    22:00 +8°C° 0.3 mm 1 mps 622 mmHg 89%
    23:00 +8°C° 0.3 mm 1 mps 622 mmHg 89%

    Tomorrow, 23 September, Saturday

    Time Temperature Precipitation Wind Pressure Humidity
    00:00 +8°C° 0.3 mm 1 mps 622 mmHg 89%
    01:00 +8°C° 0.1 mm 1 mps 622 mmHg 89%
    02:00 +8°C° 0.1 mm 1 mps 621 mmHg 88%
    03:00 +6°C° 0.1 mm 0 mps 621 mmHg 87%
    04:00 +7°C° 0 mm 1 mps 621 mmHg 87%
    05:00 +7°C° 0 mm 1 mps 621 mmHg 86%
    06:00 +7°C° 0 mm 1 mps 621 mmHg 85%
    07:00 +9°C° 0 mm 1 mps 622 mmHg 78%
    08:00 +11°C° 0 mm 1 mps 623 mmHg 72%
    09:00 +13°C° 0 mm 1 mps 624 mmHg 65%
    10:00 +14°C° 0.2 mm 2 mps 624 mmHg 60%
    11:00 +15°C° 0.2 mm 2 mps 624 mmHg 56%
    12:00 +16°C° 0.2 mm 2 mps 624 mmHg 52%
    13:00 +16°C° 0.5 mm 2 mps 624 mmHg 52%
    14:00 +16°C° 0.5 mm 2 mps 624 mmHg 52%
    15:00 +16°C° 0.5 mm 1 mps 624 mmHg 52%
    16:00 +14°C° 0.1 mm 1 mps 623 mmHg 59%
    17:00 +13°C° 0.1 mm 1 mps 622 mmHg 66%
    18:00 +11°C° 0.1 mm 1 mps 621 mmHg 73%
    19:00 +10°C° 0 mm 1 mps 621 mmHg 75%
    20:00 +9°C° 0 mm 1 mps 622 mmHg 76%
    21:00 +9°C° 0 mm 1 mps 622 mmHg 78%
    22:00 +9°C° 0 mm 1 mps 621 mmHg 76%
    23:00 +8°C° 0 mm 1 mps 621 mmHg 74%

    Day after tomorrow, 24 September, Sunday

    Time Temperature Precipitation Wind Pressure Humidity
    00:00 +8°C° 0 mm 1 mps 621 mmHg 72%
    01:00 +8°C° 0 mm 1 mps 621 mmHg 69%
    02:00 +8°C° 0 mm 1 mps 621 mmHg 66%
    03:00 +8°C° 0 mm 1 mps 621 mmHg 63%
    04:00 +7°C° 0 mm 2 mps 621 mmHg 62%
    05:00 +7°C° 0 mm 2 mps 621 mmHg 60%
    06:00 +7°C° 0 mm 2 mps 621 mmHg 59%
    07:00 +11°C° 0 mm 1 mps 622 mmHg 54%
    08:00 +13°C° 0 mm 1 mps 624 mmHg 49%
    09:00 +16°C° 0 mm 1 mps 625 mmHg 43%
    10:00 +18°C° 0 mm 1 mps 625 mmHg 40%
    11:00 +20°C° 0 mm 1 mps 626 mmHg 37%
    12:00 +21°C° 0 mm 1 mps 626 mmHg 33%
    13:00 +20°C° 0 mm 2 mps 625 mmHg 34%
    14:00 +19°C° 0 mm 2 mps 625 mmHg 35%
    15:00 +19°C° 0 mm 2 mps 624 mmHg 36%
    16:00 +18°C° 0 mm 1 mps 624 mmHg 45%
    17:00 +15°C° 0 mm 1 mps 623 mmHg 54%
    18:00 +12°C° 0 mm 1 mps 622 mmHg 63%
    19:00 +12°C° 0 mm 1 mps 622 mmHg 65%
    20:00 +11°C° 0 mm 1 mps 622 mmHg 66%
    21:00 +11°C° 0 mm 1 mps 622 mmHg 68%
    22:00 +10°C° 0 mm 1 mps 622 mmHg 67%
    23:00 +10°C° 0 mm 1 mps 621 mmHg 65%

    25 September, Monday

    Time Temperature Precipitation Wind Pressure Humidity
    00:00 +10°C° 0 mm 1 mps 621 mmHg 64%
    01:00 +10°C° 0 mm 1 mps 621 mmHg 64%
    02:00 +10°C° 0 mm 1 mps 621 mmHg 63%
    03:00 +10°C° 0 mm 1 mps 621 mmHg 63%
    04:00 +10°C° 0 mm 1 mps 621 mmHg 63%
    05:00 +10°C° 0 mm 1 mps 621 mmHg 63%
    06:00 +10°C° 0 mm 1 mps 621 mmHg 64%
    07:00 +12°C° 0 mm 1 mps 622 mmHg 59%
    08:00 +14°C° 0 mm 1 mps 623 mmHg 55%
    09:00 +16°C° 0 mm 1 mps 624 mmHg 51%
    10:00 +16°C° 0 mm 2 mps 624 mmHg 50%
    11:00 +17°C° 0 mm 2 mps 624 mmHg 49%
    12:00 +18°C° 0 mm 3 mps 625 mmHg 47%
    13:00 +17°C° 0.1 mm 2 mps 624 mmHg 51%
    14:00 +17°C° 0.1 mm 2 mps 624 mmHg 54%
    15:00 +16°C° 0.1 mm 2 mps 623 mmHg 57%
    16:00 +14°C° 0.2 mm 2 mps 623 mmHg 66%
    17:00 +13°C° 0.2 mm 2 mps 622 mmHg 74%
    18:00 +11°C° 0.2 mm 1 mps 622 mmHg 82%
    19:00 +10°C° 0.2 mm 2 mps 622 mmHg 85%
    20:00 +9°C° 0.2 mm 2 mps 622 mmHg 88%
    21:00 +9°C° 0.2 mm 2 mps 622 mmHg 91%
    22:00 +10°C° 0.1 mm 1 mps 622 mmHg 91%
    23:00 +9°C° 0.1 mm 1 mps 622 mmHg 92%

    26 September, Tuesday

    Time Temperature Precipitation Wind Pressure Humidity
    00:00 +9°C° 0.1 mm 1 mps 622 mmHg 92%
    01:00 +9°C° 0.1 mm 1 mps 622 mmHg 93%
    02:00 +9°C° 0.1 mm 1 mps 622 mmHg 93%
    03:00 +8°C° 0.1 mm 1 mps 621 mmHg 94%
    04:00 +8°C° 0 mm 1 mps 621 mmHg 94%
    05:00 +8°C° 0 mm 1 mps 621 mmHg 94%
    06:00 +8°C° 0 mm 1 mps 621 mmHg 94%
    07:00 +9°C° 0 mm 1 mps 622 mmHg 89%
    08:00 +10°C° 0 mm 1 mps 623 mmHg 83%
    09:00 +12°C° 0 mm 1 mps 623 mmHg 77%
    10:00 +12°C° 0.1 mm 1 mps 623 mmHg 73%
    11:00 +13°C° 0.1 mm 1 mps 623 mmHg 69%
    12:00 +14°C° 0.1 mm 2 mps 624 mmHg 65%
    13:00 +13°C° 0.1 mm 1 mps 623 mmHg 66%
    14:00 +13°C° 0.1 mm 1 mps 623 mmHg 67%
    15:00 +13°C° 0.1 mm 1 mps 623 mmHg 68%
    16:00 +12°C° 0.1 mm 1 mps 622 mmHg 73%
    17:00 +10°C° 0.1 mm 1 mps 622 mmHg 78%
    18:00 +9°C° 0.1 mm 1 mps 622 mmHg 83%
    19:00 +9°C° 0 mm 1 mps 622 mmHg 85%
    20:00 +9°C° 0 mm 1 mps 622 mmHg 87%
    21:00 +8°C° 0 mm 1 mps 622 mmHg 88%
    22:00 +8°C° 0 mm 1 mps 622 mmHg 89%
    23:00 +8°C° 0 mm 1 mps 622 mmHg 90%

    27 September, Wednesday

    Time Temperature Precipitation Wind Pressure Humidity
    00:00 +8°C° 0 mm 1 mps 621 mmHg 90%
    01:00 +7°C° 0 mm 1 mps 621 mmHg 91%
    02:00 +7°C° 0 mm 1 mps 621 mmHg 91%
    03:00 +7°C° 0 mm 1 mps 621 mmHg 91%
    04:00 +7°C° 0 mm 1 mps 621 mmHg 90%
    05:00 +7°C° 0 mm 1 mps 621 mmHg 90%
    06:00 +6°C° 0 mm 1 mps 621 mmHg 90%
    07:00 +9°C° 0 mm 1 mps 622 mmHg 80%
    08:00 +11°C° 0 mm 1 mps 623 mmHg 71%
    09:00 +14°C° 0 mm 1 mps 625 mmHg 62%
    10:00 +15°C° 0 mm 1 mps 625 mmHg 56%
    11:00 +16°C° 0 mm 1 mps 625 mmHg 50%
    12:00 +18°C° 0 mm 1 mps 626 mmHg 44%
    13:00 +18°C° 0 mm 1 mps 625 mmHg 46%
    14:00 +16°C° 0 mm 1 mps 625 mmHg 48%
    15:00 +16°C° 0 mm 1 mps 625 mmHg 50%
    16:00 +14°C° 0 mm 1 mps 624 mmHg 59%
    17:00 +12°C° 0 mm 1 mps 623 mmHg 68%
    18:00 +10°C° 0 mm 1 mps 622 mmHg 76%
    19:00 +9°C° 0 mm 1 mps 622 mmHg 78%
    20:00 +9°C° 0 mm 1 mps 622 mmHg 80%
    21:00 +8°C° 0 mm 1 mps 622 mmHg 82%
    22:00 +8°C° 0 mm 1 mps 622 mmHg 82%
    23:00 +8°C° 0 mm 1 mps 622 mmHg 81%
    Show more